| time (UTC) | temp F | wind direction | speed MPH | gust MPH | rain 1hr in | rain 24hr in | rain mn in | humidity % | barometer mb |
| 20260905021603 | 89 | 0 | 0.0 | 2.0 | 0.00 | 0.16 | 0.16 | 56 | 1012.3 |
| 20260905014603 | 90 | 0 | 0.0 | 3.0 | 0.00 | 0.16 | 0.16 | 54 | 1011.9 |
| 20260905013104 | 91 | 0 | 0.0 | 4.0 | 0.00 | 0.16 | 0.16 | 53 | 1011.6 |
| 20260905011600 | 91 | 0 | 0.0 | 2.0 | 0.00 | 0.16 | 0.16 | 52 | 1011.4 |
| 20260905010110 | 92 | 0 | 0.0 | 5.0 | 0.00 | 0.16 | 0.16 | 50 | 1011.2 |
| 20260905004603 | 93 | 0 | 0.0 | 4.0 | 0.00 | 0.16 | 0.16 | 49 | 1011.1 |
| 20260905003103 | 94 | 200 | 0.0 | 4.0 | 0.00 | 0.16 | 0.16 | 48 | 1010.9 |
| 20260905001558 | 95 | 0 | 0.0 | 4.0 | 0.00 | 0.16 | 0.16 | 46 | 1010.7 |
| 20260905000106 | 96 | 0 | 0.0 | 4.0 | 0.00 | 0.16 | 0.16 | 45 | 1010.7 |
| 20260904234601 | 96 | 0 | 0.0 | 7.0 | 0.00 | 0.16 | 0.16 | 45 | 1010.7 |
| 20260904233103 | 97 | 0 | 0.0 | 8.0 | 0.00 | 0.16 | 0.16 | 43 | 1010.7 |
| 20260904231600 | 98 | 0 | 0.0 | 7.0 | 0.00 | 0.16 | 0.16 | 42 | 1010.7 |
| 20260904230111 | 98 | 0 | 1.0 | 9.0 | 0.00 | 0.16 | 0.16 | 40 | 1010.8 |
| 20260904224558 | 98 | 0 | 1.0 | 4.0 | 0.00 | 0.16 | 0.16 | 39 | 1010.9 |
| 20260904223107 | 99 | 160 | 0.0 | 8.0 | 0.00 | 0.16 | 0.16 | 41 | 1011.1 |
| 20260904221609 | 99 | 90 | 0.0 | 9.0 | 0.00 | 0.16 | 0.16 | 40 | 1011.1 |
| 20260904220120 | 100 | 107 | 0.0 | 5.0 | 0.00 | 0.16 | 0.16 | 39 | 1011.1 |
| 20260904214606 | 99 | 0 | 1.0 | 8.0 | 0.00 | 0.16 | 0.16 | 41 | 1011.2 |
| 20260904213103 | 99 | 0 | 2.0 | 9.0 | 0.00 | 0.16 | 0.16 | 41 | 1011.5 |
| 20260904211607 | 98 | 0 | 0.0 | 7.0 | 0.00 | 0.16 | 0.16 | 42 | 1011.6 |
| 20260904210108 | 99 | 109 | 0.0 | 8.0 | 0.00 | 0.16 | 0.16 | 41 | 1011.9 |
| 20260904204603 | 98 | 0 | 1.0 | 10.0 | 0.00 | 0.16 | 0.16 | 42 | 1012.1 |
| 20260904203100 | 97 | 0 | 2.0 | 11.0 | 0.00 | 0.16 | 0.16 | 45 | 1012.2 |
| 20260904201600 | 97 | 0 | 1.0 | 9.0 | 0.00 | 0.16 | 0.16 | 45 | 1012.3 |
| 20260904200110 | 97 | 103 | 1.0 | 8.0 | 0.00 | 0.16 | 0.16 | 45 | 1012.7 |
| 20260904194606 | 96 | 78 | 0.0 | 8.0 | 0.00 | 0.16 | 0.16 | 46 | 1012.9 |
| 20260904193101 | 96 | 0 | 2.0 | 10.0 | 0.00 | 0.16 | 0.16 | 47 | 1013.0 |
| 20260904191601 | 95 | 239 | 1.0 | 8.0 | 0.00 | 0.16 | 0.16 | 48 | 1013.1 |
| 20260904190107 | 94 | 0 | 2.0 | 9.0 | 0.00 | 0.16 | 0.16 | 49 | 1013.3 |
| 20260904184612 | 95 | 216 | 3.0 | 9.0 | 0.00 | 0.16 | 0.16 | 47 | 1013.4 |
| 20260904183058 | 94 | 150 | 1.0 | 9.0 | 0.00 | 0.16 | 0.16 | 50 | 1013.7 |
| 20260904181601 | 92 | 0 | 0.0 | 6.0 | 0.00 | 0.16 | 0.16 | 54 | 1014.0 |
| 20260904180114 | 91 | 0 | 1.0 | 7.0 | 0.00 | 0.16 | 0.16 | 51 | 1014.2 |
| 20260904174622 | 91 | 0 | 0.0 | 8.0 | 0.00 | 0.16 | 0.16 | 52 | 1014.3 |
| 20260904173109 | 91 | 0 | 2.0 | 7.0 | 0.00 | 0.16 | 0.16 | 56 | 1014.4 |
| 20260904171604 | 89 | 102 | 1.0 | 6.0 | 0.00 | 0.16 | 0.16 | 57 | 1014.6 |
| 20260904170100 | 87 | 0 | 0.0 | 10.0 | 0.00 | 0.16 | 0.16 | 62 | 1014.7 |
| 20260904164603 | 88 | 234 | 2.0 | 11.0 | 0.00 | 0.16 | 0.16 | 61 | 1014.9 |
| 20260904163107 | 86 | 0 | 2.0 | 9.0 | 0.00 | 0.16 | 0.16 | 65 | 1014.9 |
| 20260904161609 | 86 | 0 | 2.0 | 10.0 | 0.00 | 0.16 | 0.16 | 67 | 1015.0 |
| 20260904160110 | 86 | 210 | 2.0 | 11.0 | 0.00 | 0.16 | 0.16 | 65 | 1014.9 |
| 20260904154604 | 84 | 205 | 2.0 | 8.0 | 0.00 | 0.16 | 0.16 | 76 | 1014.8 |
| 20260904153131 | 83 | 0 | 0.0 | 6.0 | 0.00 | 0.16 | 0.16 | 78 | 1014.8 |
| 20260904151608 | 83 | 215 | 1.0 | 6.0 | 0.00 | 0.16 | 0.16 | 78 | 1014.8 |
| 20260904150106 | 82 | 218 | 0.0 | 12.0 | 0.00 | 0.16 | 0.16 | 81 | 1014.7 |
| 20260904144603 | 81 | 220 | 1.0 | 8.0 | 0.00 | 0.16 | 0.16 | 79 | 1014.6 |
| 20260904143103 | 81 | 0 | 0.0 | 5.0 | 0.00 | 0.16 | 0.16 | 85 | 1014.7 |
| 20260904141603 | 80 | 121 | 0.0 | 4.0 | 0.00 | 0.16 | 0.16 | 87 | 1014.7 |
| 20260904140103 | 79 | 221 | 0.0 | 4.0 | 0.00 | 0.16 | 0.16 | 88 | 1014.5 |
| 20260904134607 | 78 | 0 | 0.0 | 4.0 | 0.00 | 0.16 | 0.16 | 90 | 1014.4 |
| 20260904133105 | 78 | 0 | 0.0 | 4.0 | 0.00 | 0.16 | 0.16 | 90 | 1014.3 |
| 20260904131605 | 77 | 0 | 0.0 | 6.0 | 0.00 | 0.16 | 0.16 | 91 | 1014.1 |
| 20260904130104 | 77 | 0 | 0.0 | 0.0 | 0.00 | 0.16 | 0.16 | 91 | 1014.0 |
| 20260904124600 | 77 | 0 | 0.0 | 0.0 | 0.00 | 0.16 | 0.16 | 91 | 1013.8 |
| 20260904123102 | 77 | 0 | 0.0 | 0.0 | 0.00 | 0.16 | 0.16 | 92 | 1013.5 |
| 20260904121558 | 77 | 0 | 0.0 | 2.0 | 0.00 | 0.16 | 0.16 | 91 | 1013.5 |
| 20260904120110 | 77 | 0 | 0.0 | 3.0 | 0.00 | 0.16 | 0.16 | 92 | 1013.3 |
| 20260904114600 | 76 | 0 | 0.0 | 0.0 | 0.00 | 0.16 | 0.16 | 91 | 1013.3 |
| 20260904113108 | 77 | 0 | 0.0 | 0.0 | 0.00 | 0.16 | 0.16 | 92 | 1013.2 |
| 20260904111558 | 77 | 0 | 0.0 | 0.0 | 0.00 | 0.16 | 0.16 | 91 | 1013.1 |
| 20260904110101 | 76 | 0 | 0.0 | 0.0 | 0.00 | 0.16 | 0.16 | 91 | 1013.2 |
| 20260904104602 | 76 | 0 | 0.0 | 0.0 | 0.00 | 0.16 | 0.16 | 92 | 1013.1 |
| 20260904103104 | 76 | 0 | 0.0 | 0.0 | 0.00 | 0.16 | 0.16 | 92 | 1013.1 |
| 20260904101602 | 76 | 0 | 0.0 | 0.0 | 0.00 | 0.16 | 0.16 | 92 | 1012.9 |
| 20260904100059 | 76 | 0 | 0.0 | 3.0 | 0.00 | 0.16 | 0.16 | 92 | 1013.1 |
| 20260904094611 | 76 | 0 | 0.0 | 0.0 | 0.00 | 0.16 | 0.16 | 92 | 1012.9 |
| 20260904093114 | 76 | 0 | 0.0 | 5.0 | 0.00 | 0.16 | 0.16 | 92 | 1012.7 |
| 20260904091600 | 76 | 0 | 0.0 | 5.0 | 0.00 | 0.16 | 0.16 | 92 | 1012.7 |
| 20260904084601 | 76 | 0 | 0.0 | 7.0 | 0.00 | 0.16 | 0.16 | 92 | 1012.6 |
| 20260904083103 | 76 | 0 | 0.0 | 6.0 | 0.00 | 0.16 | 0.16 | 92 | 1012.6 |
| 20260904081558 | 76 | 0 | 0.0 | 5.0 | 0.00 | 0.16 | 0.16 | 92 | 1012.7 |
| 20260904080101 | 76 | 223 | 0.0 | 2.0 | 0.00 | 0.16 | 0.16 | 93 | 1012.7 |
| 20260904074605 | 76 | 209 | 0.0 | 5.0 | 0.00 | 0.16 | 0.16 | 93 | 1012.7 |
| 20260904073101 | 76 | 0 | 0.0 | 4.0 | 0.00 | 0.16 | 0.16 | 93 | 1012.8 |
| 20260904071601 | 75 | 0 | 0.0 | 9.0 | 0.00 | 0.16 | 0.16 | 92 | 1012.9 |
| 20260904070104 | 75 | 200 | 0.0 | 4.0 | 0.01 | 0.16 | 0.16 | 92 | 1012.8 |
| 20260904064601 | 75 | 0 | 0.0 | 1.0 | 0.05 | 0.16 | 0.16 | 92 | 1013.1 |
| 20260904063103 | 75 | 0 | 0.0 | 1.0 | 0.16 | 0.16 | 0.16 | 92 | 1013.1 |
| 20260904061605 | 76 | 0 | 0.0 | 6.0 | 0.16 | 0.16 | 0.16 | 91 | 1013.0 |
| 20260904054605 | 77 | 0 | 0.0 | 6.0 | 0.10 | 0.10 | 0.10 | 88 | 1013.2 |
| 20260904053139 | 78 | 0 | 0.0 | 10.0 | 0.00 | 0.00 | 0.00 | 85 | 1013.4 |
| 20260904051601 | 79 | 0 | 0.0 | 11.0 | 0.00 | 0.00 | 0.00 | 81 | 1013.0 |
| 20260904050115 | 80 | 0 | 1.0 | 11.0 | 0.00 | 0.00 | 0.00 | 76 | 1012.9 |
| 20260904044559 | 80 | 0 | 2.0 | 11.0 | 0.00 | 0.00 | 0.00 | 74 | 1013.2 |
| 20260904043059 | 80 | 0 | 2.0 | 10.0 | 0.00 | 0.00 | 0.00 | 73 | 1013.1 |
| 20260904041606 | 81 | 108 | 2.0 | 15.0 | 0.00 | 0.00 | 0.00 | 72 | 1012.9 |
| 20260904040105 | 81 | 0 | 1.0 | 12.0 | 0.00 | 0.00 | 0.00 | 72 | 1013.0 |
| 20260904034605 | 81 | 101 | 1.0 | 7.0 | 0.00 | 0.00 | 0.00 | 71 | 1013.1 |
| 20260904033118 | 81 | 0 | 2.0 | 10.0 | 0.00 | 0.00 | 0.00 | 69 | 1012.9 |
| 20260904031559 | 81 | 0 | 1.0 | 7.0 | 0.00 | 0.00 | 0.00 | 68 | 1012.8 |
| 20260904024605 | 82 | 0 | 2.0 | 10.0 | 0.00 | 0.00 | 0.00 | 67 | 1012.6 |
| 20260904023059 | 82 | 114 | 1.0 | 9.0 | 0.00 | 0.00 | 0.00 | 66 | 1012.4 |